Tunica, MS

12:05 AM CDT on June 23, 2017 (GMT -0500)
Tunica

Weather History for KUTA - September, 2013

Change the Weather History Date:

Monday, September 2, 2013

  Actual Average (KAWM) Record (KAWM)
Temperature  
Mean Temperature 81 °F -  
Max Temperature 89 °F 88 °F 96 °F (1975)
Min Temperature 73 °F 69 °F 52 °F (1967)
Cooling Degree Days 16    
Growing Degree Days 31 (Base 50)    
Moisture  
Dew Point 72 °F    
Average Humidity 76    
Maximum Humidity 94    
Minimum Humidity 52    
Precipitation  
Precipitation 0.31 in - - ()
Sea Level Pressure  
Sea Level Pressure 29.89 in    
Wind  
Wind Speed 7 mph (SW)    
Max Wind Speed 29 mph    
Max Gust Speed 36 mph    
Visibility 9 miles    
Events Rain , Thunderstorm    
Averages and records for this station are not official NWS values.
T = Trace of Precipitation, MM = Missing Value Source: NWS Daily Summary

Daily Weather History Graph

Daily Weather History Graph

Search for Another Location

Airport or City:

Trip Planner

Search our weather history database for the weather conditions in past years. The results will help you decide how hot, cold, wet, or windy it might be!

Date:

Astronomy

Sep. 02, 2013 Rise Set
Actual Time 6:35 AM CDT 7:26 PM CDT
Civil Twilight 6:09 AM CDT 7:51 PM CDT
Nautical Twilight 5:39 AM CDT 8:21 PM CDT
Astronomical Twilight 5:07 AM CDT 8:53 PM CDT
Moon 3:56 AM CDT (9/2) 5:36 PM CDT (9/2)
Length of Visible Light 13h 42m
Length of Day
12h 50m
Waning Crescent, 8% of the Moon is Illuminated
Sep 2
Waning Crescent
Sep 5
New
Sep 12
First Quarter
Sep 19
Full
Sep 26
Last Quarter

Hourly Weather History & Observations

Time (CDT) Temp. Heat Index Dew Point Humidity Pressure Visibility Wind Dir Wind Speed Gust Speed Precip Events Conditions
12:15 AM 77.0 °F - 73.4 °F 89% 29.86 in 10.0 mi South 4.6 mph - N/A   Clear
12:35 AM 78.8 °F - 71.6 °F 78% 29.86 in 10.0 mi South 5.8 mph - N/A   Clear
12:55 AM 78.8 °F - 71.6 °F 78% 29.86 in 10.0 mi SSW 3.5 mph - N/A   Clear
1:15 AM 78.8 °F - 71.6 °F 78% 29.86 in 10.0 mi SW 4.6 mph - N/A   Clear
1:35 AM 78.8 °F - 71.6 °F 78% 29.85 in 10.0 mi SSW 6.9 mph - N/A   Clear
1:55 AM 78.8 °F - 71.6 °F 78% 29.85 in 10.0 mi SW 4.6 mph - N/A   Clear
2:15 AM 78.8 °F - 71.6 °F 78% 29.85 in 10.0 mi SSW 3.5 mph - N/A   Clear
2:35 AM 77.0 °F - 71.6 °F 83% 29.85 in 10.0 mi Calm Calm - N/A   Clear
2:55 AM 77.0 °F - 71.6 °F 83% 29.85 in 10.0 mi SSE 4.6 mph - N/A   Clear
3:15 AM 77.0 °F - 71.6 °F 83% 29.85 in 10.0 mi South 3.5 mph - N/A   Clear
3:35 AM 77.0 °F - 71.6 °F 83% 29.85 in 10.0 mi Calm Calm - N/A Rain , Thunderstorm Light Thunderstorms and Rain
3:55 AM 77.0 °F - 71.6 °F 83% 29.85 in 10.0 mi Calm Calm - N/A Thunderstorm Thunderstorm
4:15 AM 78.8 °F - 69.8 °F 74% 29.85 in 1.5 mi West 28.8 mph 35.7 mph 0.01 in Rain , Thunderstorm Thunderstorms and Rain
4:35 AM 78.8 °F - 69.8 °F 74% 29.84 in 7.0 mi West 9.2 mph - 0.16 in Rain Light Rain
4:55 AM 77.0 °F - 71.6 °F 83% 29.85 in 7.0 mi South 6.9 mph - 0.16 in Thunderstorm Scattered Clouds
5:15 AM 77.0 °F - 71.6 °F 83% 29.85 in 10.0 mi South 6.9 mph - N/A Thunderstorm Clear
5:35 AM 77.0 °F - 71.6 °F 83% 29.86 in 10.0 mi South 4.6 mph - N/A Thunderstorm Clear
5:55 AM 75.2 °F - 71.6 °F 89% 29.88 in 7.0 mi North 6.9 mph - N/A Rain , Thunderstorm Light Thunderstorms and Rain
6:15 AM 77.0 °F - 71.6 °F 83% 29.88 in 4.0 mi SSE 5.8 mph - 0.05 in Rain , Thunderstorm Heavy Thunderstorms and Rain
6:35 AM 77.0 °F - 71.6 °F 83% 29.88 in 10.0 mi SSW 5.8 mph - 0.15 in Rain , Thunderstorm Light Thunderstorms and Rain
6:55 AM 75.2 °F - 71.6 °F 89% 29.89 in 7.0 mi SSE 5.8 mph - 0.15 in Rain , Thunderstorm Light Thunderstorms and Rain
7:15 AM 75.2 °F - 71.6 °F 89% 29.88 in 7.0 mi SSW 5.8 mph - N/A Thunderstorm Scattered Clouds
7:35 AM 73.4 °F - 71.6 °F 94% 29.89 in 7.0 mi SSE 6.9 mph - N/A Thunderstorm Thunderstorm
7:55 AM 75.2 °F - 71.6 °F 89% 29.89 in 10.0 mi South 4.6 mph - N/A   Scattered Clouds
8:15 AM 77.0 °F - 73.4 °F 89% 29.90 in 10.0 mi SSW 5.8 mph - N/A   Clear
8:35 AM 78.8 °F - 73.4 °F 83% 29.91 in 10.0 mi SW 8.1 mph - N/A   Mostly Cloudy
8:55 AM 78.8 °F - 73.4 °F 83% 29.92 in 10.0 mi South 8.1 mph - N/A   Overcast
9:15 AM 78.8 °F - 73.4 °F 83% 29.93 in 10.0 mi SW 9.2 mph - N/A   Mostly Cloudy
9:35 AM 80.6 °F 85.4 °F 73.4 °F 79% 29.94 in 10.0 mi SSW 18.4 mph 24.2 mph N/A   Mostly Cloudy
9:55 AM 78.8 °F - 71.6 °F 78% 29.95 in 10.0 mi SSW 12.7 mph 18.4 mph N/A   Mostly Cloudy
10:15 AM 78.8 °F - 71.6 °F 78% 29.95 in 10.0 mi SSW 12.7 mph - N/A   Scattered Clouds
10:35 AM 78.8 °F - 71.6 °F 78% 29.96 in 10.0 mi SW 13.8 mph - N/A   Scattered Clouds
10:55 AM 80.6 °F 84.6 °F 71.6 °F 74% 29.96 in 10.0 mi SW 13.8 mph 21.9 mph N/A   Mostly Cloudy
11:15 AM 78.8 °F - 71.6 °F 78% 29.97 in 10.0 mi SW 15.0 mph 20.7 mph N/A   Scattered Clouds
11:35 AM 80.6 °F 84.6 °F 71.6 °F 74% 29.97 in 10.0 mi SW 15.0 mph - N/A   Scattered Clouds
11:55 AM 80.6 °F 84.6 °F 71.6 °F 74% 29.97 in 10.0 mi WSW 15.0 mph 20.7 mph N/A   Scattered Clouds
12:15 PM 82.4 °F 87.2 °F 71.6 °F 70% 29.96 in 10.0 mi SW 12.7 mph 20.7 mph N/A   Scattered Clouds
12:35 PM 84.2 °F 89.6 °F 71.6 °F 66% 29.96 in 10.0 mi SW 11.5 mph - N/A   Clear
12:55 PM 86.0 °F 91.8 °F 71.6 °F 62% 29.95 in 10.0 mi WSW 13.8 mph - N/A   Clear
1:15 PM 86.0 °F 90.4 °F 69.8 °F 58% 29.94 in 10.0 mi SW 12.7 mph - N/A   Clear
1:35 PM 86.0 °F 91.8 °F 71.6 °F 62% 29.93 in 10.0 mi SW 9.2 mph - N/A   Clear
1:55 PM 87.8 °F 92.6 °F 69.8 °F 55% 29.93 in 10.0 mi WSW 11.5 mph - N/A   Clear
2:15 PM 86.0 °F 89.4 °F 68.0 °F 55% 29.92 in 10.0 mi SW 11.5 mph - N/A   Clear
2:35 PM 87.8 °F 92.6 °F 69.8 °F 55% 29.91 in 10.0 mi WSW 11.5 mph - N/A   Clear
2:55 PM 87.8 °F 92.6 °F 69.8 °F 55% 29.90 in 10.0 mi WSW 9.2 mph - N/A   Clear
3:15 PM 89.6 °F 94.7 °F 69.8 °F 52% 29.88 in 10.0 mi West 9.2 mph - N/A   Clear
3:35 PM 89.6 °F 94.7 °F 69.8 °F 52% 29.88 in 10.0 mi WSW 11.5 mph 16.1 mph N/A   Clear
3:55 PM 87.8 °F 92.6 °F 69.8 °F 55% 29.87 in 10.0 mi WSW 11.5 mph - N/A   Clear
4:15 PM 87.8 °F 93.8 °F 71.6 °F 58% 29.87 in 10.0 mi West 8.1 mph 16.1 mph N/A   Clear
4:35 PM 87.8 °F 93.8 °F 71.6 °F 58% 29.87 in 10.0 mi WNW 8.1 mph - N/A   Clear
4:55 PM 86.0 °F 91.8 °F 71.6 °F 62% 29.87 in 10.0 mi WNW 5.8 mph - N/A   Clear
5:15 PM 86.0 °F 91.8 °F 71.6 °F 62% 29.87 in 10.0 mi West 6.9 mph - N/A   Clear
5:35 PM 86.0 °F 91.8 °F 71.6 °F 62% 29.87 in 10.0 mi WNW 5.8 mph - N/A   Clear
5:55 PM 86.0 °F 91.8 °F 71.6 °F 62% 29.87 in 10.0 mi WNW 4.6 mph - N/A   Clear
6:15 PM 86.0 °F 93.4 °F 73.4 °F 66% 29.87 in 10.0 mi West 9.2 mph - N/A   Clear
6:35 PM 86.0 °F 93.4 °F 73.4 °F 66% 29.87 in 10.0 mi NW 6.9 mph - N/A   Clear
6:55 PM 82.4 °F 88.2 °F 73.4 °F 74% 29.87 in 10.0 mi NW 6.9 mph - N/A   Clear
7:15 PM 82.4 °F 88.2 °F 73.4 °F 74% 29.88 in 10.0 mi NNW 5.8 mph - N/A   Clear
7:35 PM 80.6 °F 85.4 °F 73.4 °F 79% 29.88 in 10.0 mi NW 5.8 mph - N/A   Clear
7:55 PM 78.8 °F - 73.4 °F 83% 29.88 in 10.0 mi NNW 4.6 mph - N/A   Clear
8:15 PM 78.8 °F - 73.4 °F 83% 29.88 in 10.0 mi NNW 4.6 mph - N/A   Clear
8:35 PM 78.8 °F - 73.4 °F 83% 29.88 in 10.0 mi NNW 4.6 mph - N/A   Clear
8:55 PM 78.8 °F - 73.4 °F 83% 29.89 in 10.0 mi NNW 4.6 mph - N/A   Clear
9:15 PM 78.8 °F - 73.4 °F 83% 29.89 in 10.0 mi NW 4.6 mph - N/A   Clear
9:35 PM 78.8 °F - 73.4 °F 83% 29.90 in 10.0 mi Calm Calm - N/A   Clear
9:55 PM 77.0 °F - 73.4 °F 89% 29.91 in 10.0 mi Calm Calm - N/A   Clear
10:15 PM 77.0 °F - 71.6 °F 83% 29.92 in 7.0 mi SSE 4.6 mph - N/A   Clear
10:35 PM 75.2 °F - 73.4 °F 94% 29.92 in 7.0 mi Calm Calm - N/A   Clear
10:55 PM 77.0 °F - 73.4 °F 89% 29.92 in 7.0 mi Calm Calm - N/A   Clear
11:15 PM 77.0 °F - 71.6 °F 83% 29.92 in 10.0 mi North 3.5 mph - N/A   Clear
11:35 PM 75.2 °F - 71.6 °F 89% 29.92 in 7.0 mi Calm Calm - N/A   Clear
11:55 PM 75.2 °F - 71.6 °F 89% 29.92 in 10.0 mi Calm Calm - N/A   Clear